This demonstration page uses our WeatherBlox Daily Observations layout. Learn more.

Left ArrowRight Arrow

40.92945, -100.16068

Hourly Observations for November 26, 2015

Temp ( °F °C ) Dew Point ( °F °C ) Humidity (%) Winds ( mph kmh ) Pressure ( in mb ) Visibility ( mi km ) Precip ( " mm )
12:15 am 00:15 Cloudy 34 1 32 -0.2 92 92 NNE 14 22 30.21 1023 10 16 N/A
12:35 am 00:35 Cloudy 34 1 31 -0.4 90 90 NNE 17 28 30.21 1023 7 11 N/A
12:55 am 00:55 Cloudy 34 1 31 -0.5 90 90 NNE 14 22 30.21 1023 10 16 N/A
1:15 am 01:15 Cloudy 34 1 31 -0.5 90 90 N 16 26 30.21 1023 10 16 N/A
1:35 am 01:35 Cloudy 33 0.6 31 -0.5 92 92 N 17 28 30.21 1023 7 11 N/A
1:55 am 01:55 Cloudy with Mist and Fog 33 0.4 31 -0.6 93 93 N 17 28 30.21 1023 5 8 N/A
2:15 am 02:15 Cloudy with Mist and Fog 32 undefined 30 -0.9 94 94 N 14 22 30.21 1023 5 8 N/A
2:35 am 02:35 Cloudy with Mist and Fog 32 undefined 30 -1 93 93 N 15 24 30.24 1024 5 8 N/A
2:55 am 02:55 Cloudy with Mist and Fog 32 -0.1 30 -1.1 93 93 N 16 26 30.24 1024 5 8 N/A
3:15 am 03:15 Cloudy with Mist and Fog 31 -0.3 30 -1.3 93 93 NNE 16 26 30.24 1024 4 6 N/A
3:35 am 03:35 Cloudy with Light Wintry Mix 31 -0.3 30 -1.3 93 93 NNE 15 24 30.24 1024 4 6 N/A
3:55 am 03:55 Cloudy with Mist and Fog 31 -0.6 29 -1.6 93 93 N 20 31 30.24 1024 4 6 N/A
4:15 am 04:15 Cloudy 30 -1 28 -2 93 93 N 15 24 30.24 1024 7 11 N/A
4:35 am 04:35 Cloudy 30 -1 28 -2.1 92 92 N 13 20 30.30 1026 7 11 N/A
4:55 am 04:55 Cloudy with Mist and Fog 30 -1 28 -2 93 93 N 16 26 30.30 1026 5 8 N/A
5:15 am 05:15 Cloudy 30 -1.3 28 -2.5 92 92 N 15 24 30.30 1026 10 16 N/A
5:35 am 05:35 Cloudy 30 -1.3 27 -2.6 91 91 N 14 22 30.30 1026 10 16 N/A
6:15 am 06:15 Cloudy with Mist and Fog 29 -1.5 27 -2.6 92 92 N 14 22 30.36 1028 5 8 N/A
6:35 am 06:35 Cloudy with Mist and Fog 29 -1.5 27 -2.6 92 92 N 15 24 30.36 1028 4 6 N/A
6:55 am 06:55 Cloudy with Mist and Fog 29 -1.7 27 -2.8 92 92 N 15 24 30.36 1028 5 8 N/A
7:15 am 07:15 Cloudy with Mist and Fog 29 -1.8 27 -3 92 92 N 17 28 30.36 1028 5 8 N/A
7:35 am 07:35 Cloudy 29 -1.8 27 -3 92 92 N 13 20 30.36 1028 7 11 N/A
7:55 am 07:55 Cloudy with Light Snow 29 -1.8 27 -3 92 92 N 14 22 30.36 1028 10 16 N/A
8:15 am 08:15 Cloudy with Light Snow 28 -2.1 26 -3.2 92 92 N 17 28 30.36 1028 7 11 N/A
8:35 am 08:35 Cloudy 28 -2.2 26 -3.5 91 91 N 13 20 30.39 1029 10 16 N/A
8:55 am 08:55 Cloudy 27 -2.6 25 -4 90 90 N 16 26 30.45 1031 10 16 N/A
9:15 am 09:15 Cloudy with Light Snow 27 -2.6 25 -4 90 90 N 17 28 30.45 1031 5 8 N/A
9:35 am 09:35 Cloudy with Light Snow 27 -2.6 25 -4 90 90 N 13 20 30.45 1031 5 8 N/A
9:55 am 09:55 Cloudy 27 -2.7 25 -4 91 91 N 17 28 30.45 1031 10 16 N/A
10:15 am 10:15 Cloudy 27 -2.7 25 -4 91 91 N 13 20 30.45 1031 10 16 N/A
10:35 am 10:35 Cloudy 27 -2.6 25 -4 90 90 N 20 31 30.45 1031 10 16 N/A
10:55 am 10:55 Cloudy 27 -2.6 25 -4 90 90 N 20 31 30.48 1032 10 16 N/A
11:15 am 11:15 Cloudy 27 -2.8 24 -4.2 90 90 N 21 33 30.48 1032 10 16 N/A
11:35 am 11:35 Cloudy 27 -2.9 24 -4.4 90 90 N 22 35 30.45 1031 10 16 N/A
11:55 am 11:55 Cloudy 27 -2.6 24 -4.4 88 88 N 20 31 30.48 1032 10 16 N/A
12:15 pm 12:15 Cloudy 27 -2.6 24 -4.5 87 87 N 21 33 30.45 1031 10 16 N/A
12:35 pm 12:35 Cloudy 27 -3 23 -4.9 87 87 N 23 37 30.45 1031 10 16 N/A
12:55 pm 12:55 Cloudy 26 -3.2 23 -4.9 88 88 N 22 35 30.45 1031 10 16 N/A
1:15 pm 13:15 Cloudy 26 -3.4 23 -5 89 89 N 21 33 30.48 1032 10 16 N/A
1:35 pm 13:35 Cloudy 26 -3.2 23 -5 88 88 N 16 26 30.48 1032 10 16 N/A
1:55 pm 13:55 Cloudy 26 -3.3 23 -5 88 88 N 21 33 30.48 1032 10 16 N/A
2:15 pm 14:15 Cloudy 26 -3.2 23 -5.1 87 87 N 15 24 30.48 1032 10 16 N/A
2:35 pm 14:35 Cloudy 26 -3.1 23 -5 87 87 N 17 28 30.45 1031 10 16 N/A
2:55 pm 14:55 Cloudy 26 -3.5 22 -5.5 86 86 NNE 22 35 30.45 1031 10 16 N/A
3:15 pm 15:15 Cloudy 26 -3.2 22 -5.5 84 84 N 16 26 30.48 1032 10 16 N/A
3:35 pm 15:35 Cloudy 26 -3.5 22 -5.7 85 85 N 21 33 30.48 1032 10 16 N/A
3:55 pm 15:55 Cloudy 26 -3.5 22 -5.8 84 84 N 20 31 30.48 1032 10 16 N/A
4:15 pm 16:15 Cloudy 25 -3.7 21 -6 84 84 N 22 35 30.48 1032 10 16 N/A
4:35 pm 16:35 Cloudy 25 -3.8 21 -6.2 84 84 N 18 30 30.50 1033 10 16 N/A
4:55 pm 16:55 Cloudy 25 -3.8 21 -6.2 84 84 N 18 30 30.50 1033 10 16 N/A
5:15 pm 17:15 Cloudy 25 -4 21 -6.3 84 84 N 18 30 30.50 1033 10 16 N/A
5:35 pm 17:35 Cloudy 25 -4 20 -6.4 84 84 N 16 26 30.50 1033 10 16 N/A
5:55 pm 17:55 Cloudy 25 -4 20 -6.4 84 84 N 17 28 30.53 1034 10 16 N/A
6:15 pm 18:15 Cloudy 25 -4 20 -6.4 84 84 N 15 24 30.53 1034 10 16 N/A
6:35 pm 18:35 Cloudy 25 -4 20 -6.4 84 84 N 20 31 30.53 1034 10 16 N/A
6:55 pm 18:55 Cloudy 25 -4.1 20 -6.5 84 84 N 16 26 30.53 1034 10 16 N/A
7:15 pm 19:15 Cloudy 25 -4.1 20 -6.5 84 84 N 15 24 30.53 1034 10 16 N/A
7:35 pm 19:35 Cloudy 24 -4.2 20 -6.5 84 84 N 18 30 30.56 1035 10 16 N/A
7:55 pm 19:55 Cloudy 24 -4.3 20 -6.7 84 84 N 16 26 30.56 1035 10 16 N/A
8:15 pm 20:15 Cloudy 24 -4.5 19 -7 83 83 N 14 22 30.56 1035 10 16 N/A
8:35 pm 20:35 Cloudy 24 -4.5 20 -6.9 84 84 N 16 26 30.53 1034 10 16 N/A
8:55 pm 20:55 Cloudy 24 -4.7 19 -7.1 84 84 N 15 24 30.56 1035 10 16 N/A
9:15 pm 21:15 Cloudy 23 -4.8 18 -7.6 81 81 N 20 31 30.59 1036 10 16 N/A
9:35 pm 21:35 Cloudy 23 -4.8 19 -7.5 82 82 N 16 26 30.59 1036 10 16 N/A
9:55 pm 21:55 Cloudy 23 -4.9 18 -7.6 82 82 N 17 28 30.59 1036 10 16 N/A
10:15 pm 22:15 Cloudy 23 -5 18 -7.6 82 82 N 15 24 30.59 1036 10 16 N/A
10:35 pm 22:35 Cloudy 23 -5 18 -7.7 82 82 N 16 26 30.59 1036 10 16 N/A
10:55 pm 22:55 Cloudy 23 -5.1 18 -8 80 80 N 17 28 30.62 1037 10 16 N/A
11:15 pm 23:15 Cloudy 22 -5.3 17 -8.1 81 81 N 16 26 30.62 1037 10 16 N/A
11:35 pm 23:35 Cloudy 22 -5.5 17 -8.3 81 81 N 14 22 30.62 1037 10 16 N/A
11:55 pm 23:55 Cloudy 21 -6 16 -9.1 79 79 N 12 19 30.62 1037 10 16 N/A

Powered by AerisWeather